Regional Weather Roundup
Issued by NWS Charleston, SC

Current Version | Previous Version | Text Only | Print | Product List | Glossary Off
Versions: 1 2 3 4 5 6 7 8 9 10 11 12 13 14 15 16 17 18 19 20 21 22 23 24 25 26 27 28 29 30 31 32 33 34 35 36 37 38 39 40 41 42 43 44 45 46 47 48 49 50

000
ASUS42 KCHS 110427
RWRCHS

REGIONAL WEATHER ROUNDUP
NATIONAL WEATHER SERVICE CHARLESTON SC
1100 PM EST SUN DEC 10 2017

NOTE: "FAIR" INDICATES FEW OR NO CLOUDS BELOW 12,000 FEET WITH NO
SIGNIFICANT WEATHER AND/OR OBSTRUCTIONS TO VISIBILITY.

NOT ALL STATIONS ARE QUALITY CONTROLLED. USE DATA WITH CAUTION...
ESPECIALLY DEWPOINT OBSERVATIONS.

SCZ027-030-031-034>040-042>050-110500-
...SOUTHEAST SOUTH CAROLINA...

CITY           SKY/WX    TMP DP  RH WIND       PRES   REMARKS
N CHARLESTON   CLEAR     37  32  82 W5        30.25R WCI  33
WATERFRONT PRK   N/A     42  35  76 VRB2      30.09S
JOHNS ISLAND   FAIR      37  32  81 CALM      30.26R
PINOPOLIS        N/A     41  34  75 SW7       30.17R
MONCKS CORNER  FAIR      30  28  93 CALM      30.24S
SUMMERVILLE    FAIR      32  32 100 CALM      30.26R
BEAUFORT MCAS  CLEAR     35  31  85 SW6       30.26R WCI  30
BEAUFORT ARPT  FAIR      41  32  70 W8        30.26R
HILTON HEAD IS CLEAR     37  32  81 VRB6      30.28R WCI  33
WALTERBORO     CLEAR     34  30  86 W3        30.26S
ALLENDALE      FAIR      32  30  93 CALM      30.25S

...SOUTHERN MIDLANDS AND PEE DEE...

CITY           SKY/WX    TMP DP  RH WIND       PRES   REMARKS
GEORGETOWN     FAIR      32  32 100 CALM      30.25S
KINGSTREE      FAIR      32  30  93 CALM      30.23R
ORANGEBURG     CLEAR     34  28  79 SW5       30.23R WCI  30
BARNWELL         N/A     32  28  86 CALM      30.24S
AIKEN          FAIR      34  27  75 SW9       30.24F WCI  26
MANNING        FAIR      32  30  93 MISG      30.23S
COLUMBIA       CLEAR     32  28  85 CALM      30.21S
SUMTER         CLEAR     34  27  76 SW6       30.19R WCI  29
FLORENCE       CLEAR     34  28  79 S7        30.21S WCI  28
MYRTLE BEACH   CLEAR     38  31  76 SW6       30.25R WCI  33
N MYRTLE BEACH CLEAR     38  30  73 SW5       30.22R WCI  34

$$

GAZ063-065-086>088-099>101-113>116-118-119-134>141-150-110500-
...SOUTHEAST GEORGIA...

CITY           SKY/WX    TMP DP  RH WIND       PRES   REMARKS
SAVANNAH ARPT  CLEAR     36  31  82 W5        30.28R WCI  32
HUNTER AAF     CLEAR     35  30  82 SW5       30.25S WCI  31
FORT STEWART   CLEAR     33  30  91 CALM      30.26R
STATESBORO     CLEAR     35  29  77 CALM      30.27S
SYLVANIA       CLEAR     36  32  85 CALM      30.27R
CLAXTON        FAIR      33  32  99 CALM      30.28S

...CSRA...CENTRAL AND FAR SOUTHEAST GEORGIA...

CITY           SKY/WX    TMP DP  RH WIND       PRES   REMARKS
THOMSON        CLEAR     35  24  66 N3        30.29R
AUGUSTA-BUSH   CLEAR     30  27  88 CALM      30.24R
AUGUSTA-DANIEL CLEAR     40  25  55 VRB3      30.24R
SWAINSBORO     FAIR      34  30  86 W5        30.28S WCI  30
VIDALIA        CLEAR     37  32  81 CALM      30.28S
EASTMAN        FAIR      38  23  55 CALM      30.32S
HAZLEHURST     FAIR      37  25  61 CALM      30.28S
ALMA           CLEAR     33  30  88 W3        30.29R
WAYCROSS       CLEAR     35  30  79 W3        30.30R
JESUP          NOT AVBL
BAXLEY         FAIR      34  30  86 CALM      30.29R
BRUNSWICK      CLEAR     34  32  93 W3        30.30S
SAINT SIMONS   CLEAR     41  35  79 W6        30.29R

$$

SCZ027-028-034-036>038-045-046-048>050-GAZ119-141-110500-
...LAKE AND SUPPLEMENTAL COASTAL OBSERVATIONS...

STATION/POSITION TIME  TEMP    WIND        PRES    WAVE   SWELL
                       AIR SEA DIR/SP/G            HT/PER HT/PER/DIR
                 (UTC) (F)     (DEG/KT/KT) (MB)    (FT/S) (FT/S/D)
WINYAH BAY       0345   38     260/  4     1024.0S
LAKE MURRAY      0350   43     260/  9/ 15 1021.7S
ACE BASIN NERRS  0345   36        CALM     1024.0S
FORT PULASKI     0400   42 56  230/  5/  7 1025.2
SAPELO ISLAND    NOT AVBL

$$

ANZ835-935-AMZ111-154-330-350-352-354-370-450-454-472-110500-
...C-MAN AND BUOY OBSERVATIONS...

STATION/POSITION TIME  TEMP    WIND        PRES    WAVE   SWELL
                       AIR SEA DIR/SP/G            HT/PER HT/PER/DIR
                 (UTC) (F)     (DEG/KT/KT) (MB)    (FT/S) (FT/S/D)
BUOY 41004       0410      74  270/ 14/ 21 1023.4
BUOY 41008       0350   51 61  260/ 16/ 17 1024.8F   2/ 3   2/ 60/ 9
FOLLY BEACH CMAN 0400   42     240/  5/  6 1024.7R
CAPERS NEARSHORE 0408   45     270/ 16/ 21 1023.7S
FRIPP NEARSHORE  0408   47 56  250/ 17/ 29 1024.1R


STATION/POSITION TIME  TEMP    WIND        PRES    WAVE   SWELL
                       AIR SEA DIR/SP/G            HT/PER HT/PER/DIR
                 (UTC) (F)     (DEG/KT/KT) (MB)    (FT/S) (FT/S/D)
5E ST. MARYS GA  0400      60                N/A     2/10
FRYING PAN BUOY  0410   53 62  260/ 14/ 17 1022.8
BUOY 41025       0410   49 75  270/ 14/ 21 1022.3
CAPE LOOKOUT NC  0400          260/  9/ 13 1022.7S
BUOY 41002       0350   58 76  290/ 10/ 14 1022.6F   7/ 8   7/300/ 8
BUOY 41010       NOT AVBL
ST AUGUSTINE FL  0400   45 62  290/  6/  7 1026.3F


$$



USA.gov is the U.S. government's official web portal to all federal, state and local government web resources and services.